Regional Weather Roundup
Issued by NWS

Home | Current Version | Previous Version | Graphics & Text | Print | Product List | Glossary On
Versions: 1 2 3 4 5 6 7 8 9 10 11 12 13 14 15 16 17 18 19 20 21 22 23 24 25 26 27 28 29 30 31 32 33 34 35 36 37 38 39 40 41 42 43 44 45 46 47 48 49 50
000
ASUS43 KFSD 310010
RWRSD

WEATHER ROUNDUP FOR SOUTH DAKOTA
NATIONAL WEATHER SERVICE SIOUX FALLS SD
600 PM CST FRI JAN 30 2015

NOTE: "FAIR" INDICATES FEW OR NO CLOUDS BELOW 12,000 FEET WITH NO
SIGNIFICANT WEATHER AND/OR OBSTRUCTIONS TO VISIBILITY.


SDZ001>005-009-010-012>017-310100-
NORTHWEST AND NORTH CENTRAL SOUTH DAKOTA

CITY           SKY/WX    TMP DP  RH WIND       PRES   REMARKS
BUFFALO          N/A     40  24  53 N12       30.08S
FAITH            N/A     39  21  48 N8        30.12S
MOBRIDGE       CLEAR     35  26  69 NE3       30.11R
$$

SDZ012>016-024>037-041>051-057-063-072>074-310100-
SOUTHWEST AND SOUTH CENTRAL SOUTH DAKOTA

CITY           SKY/WX    TMP DP  RH WIND       PRES   REMARKS
RAPID CTY ARPT CLEAR     39  24  55 N13       30.12S
PIERRE         PTCLDY    38  23  55 N6        30.12R
CUSTER         PTCLDY    37  20  50 CALM      30.11S
ELLSWORTH AFB  CLEAR     45  24  43 N13       30.12S
PHILIP         PTCLDY    42  24  49 NE3       30.12S
PINE RIDGE     MOCLDY    41  24  51 N9        30.11F
WINNER         FAIR      45  26  47 N8        30.12R
$$

SDZ004>011-016>023-039-040-310100-
NORTHEAST SOUTH DAKOTA

CITY           SKY/WX    TMP DP  RH WIND       PRES   REMARKS
ABERDEEN       CLEAR     34  29  82 S3        30.13F
WATERTOWN      CLEAR     31  27  85 S6        30.12F WCI  25
SISSETON         N/A     36  29  75 W9        30.13R
$$

SDZ017-020-022-023-036>040-048>070-310100-
SOUTHEAST SOUTH DAKOTA

CITY           SKY/WX    TMP DP  RH WIND       PRES   REMARKS
SIOUX FALLS    PTCLDY    35  28  75 S9        30.19F WCI  28
HURON          CLEAR     38  28  67 S5        30.13F
CHAMBERLAIN    PTCLDY    40  27  59 N6        30.12S
MITCHELL       PTCLDY    40  28  62 S7        30.15F
YANKTON        PTCLDY    41  27  56 S7        30.20S
$$

ABBREVIATIONS USED IN REMARKS
   TC - TEMPERATURE IN CELSIUS
  WCI - WIND CHILL INDEX
   HX - HEAT INDEX
  VSB - VISIBILITY




USA.gov is the U.S. government's official web portal to all federal, state and local government web resources and services.